Weather in Ust'-Luga

Russia / Saint-Petersburg and Leningrad Oblast     59°39′27″N   28°15′59″E
temp.,
°C
wind,
m/s
gust,
m/s
humid.,
%
clouds,
%
prec.,
mm/h
press.,
hPa
HPBL,
m
20 june, sun
sun2000:00+19s45760 0.0 101752
03:00+17s44830 0.0 101735
06:00+17s44830 0.0 101744
09:00+20ssw46740 0.0 1017114
12:00+21sw57670 0.0 1017310
15:00+23ssw58600 0.0 1016358
18:00+24ssw57560 0.0 1015280
21:00+22sw33672 0.0 101518
21 june, mon
mon2100:00+21s337093 0.0 101524
03:00+19s34770 0.0 101520
06:00+19s45822 0.1 101549
09:00+22s58722 0.1 1015150
12:00+23sw59685 0.0 1015335
15:00+23sw7116318 0.0 1015368
18:00+25ssw695415 0.0 1014330
21:00+21wsw337255 0.1 101431
22 june, tue
tue2200:00+20sse227923 0.0 101512
03:00+19sse44795 0.0 101531
06:00+19sse45825 0.0 101559
09:00+22sse576350 0.0 1015133
12:00+24s4757100 0.0 1014306
15:00+25sw36535 0.0 1013484
18:00+23nnw236098 0.0 1013237
21:00+21ssw037147 0.5 101263
23 june, wed
wed2300:00+21sse347882 0.7 101339
03:00+19s569393 1.8 101461
06:00+18ssw4697100 0.0 101468
09:00+19sw468963 0.0 1015116
12:00+19wnw348796 0.3 1016225
15:00+18n3391100 2.8 101687
18:00+16nw3399100 2.9 101656
21:00+16nne019985 5.0 101633
24 june, thu
thu2400:00+16wsw119883 0.4 101725
03:00+15nnw119992 0.9 101731
06:00+15wnw119984 0.0 101719
09:00+17ne229575 0.0 101681
12:00+18nnw339083 0.0 1016219
15:00+19n338857 1.2 1015107
18:00+16nne2299100 5.5 101549
21:00+18se459870 6.0 101571